Lapse_Rate
7.0 7.1 7.2 7.2 7.2 7.0 7.0 6.9 6.9 6.7 6.8 6.7 6.8 6.7 6.6 6.5 6.4 6.3 6.3 6.2 6.1 6.1 6.0 6.0 5.9 5.9 5.8 5.7 5.5 5.4 5.3 5.3 5.4 5.4 5.3 4.8 4.5 4.3 4.2 4.2 3.8 3.5 2.8 4.5
7.1 7.1 7.1 7.2 7.3 7.3 7.1 7.1 7.0 6.9 6.8 6.4 6.5 6.5 6.4 6.4 6.3 6.2 6.1 6.2 6.2 6.2 6.1 6.0 5.9 5.8 5.7 5.5 5.4 5.3 5.2 5.0 5.2 5.2 4.9 4.9 4.9 5.0 4.7 4.2 3.8 3.6 2.8 5.2
7.0 7.1 7.1 7.1 7.2 7.2 7.4 7.3 7.0 6.9 6.9 6.8 6.6 6.4 6.2 6.1 6.1 6.0 6.0 6.1 6.0 6.0 6.0 6.0 5.9 5.7 5.6 5.5 5.3 5.1 4.9 5.0 5.0 5.3 5.2 5.0 4.9 5.0 4.6 4.1 3.9 4.0 4.4 5.2
7.2 7.1 7.0 7.0 7.0 7.0 7.0 7.0 7.1 7.1 6.9 6.8 6.7 6.5 6.4 6.3 6.2 6.1 6.1 6.0 6.0 6.0 6.0 5.9 5.9 5.8 5.6 5.6 5.4 5.2 4.9 5.1 5.1 5.1 5.0 4.9 5.2 4.7 4.1 3.6 3.9 3.5 5.7 5.1
7.1 7.1 7.0 6.9 6.8 6.7 6.7 6.7 6.5 6.6 6.7 6.6 6.6 6.5 6.5 6.3 6.3 6.1 6.0 5.9 5.8 5.7 5.6 5.6 5.5 5.5 5.1 5.2 5.1 4.8 4.6 4.6 4.7 6.0 5.8 5.7 5.5 5.6 5.4 5.1 5.1 4.4 5.1 5.6
7.2 7.2 7.2 7.0 6.8 6.7 6.6 6.5 6.5 6.4 6.3 6.4 6.4 6.5 6.4 6.2 6.3 6.4 6.3 6.1 6.0 6.0 5.8 5.8 5.6 5.6 5.5 5.2 5.0 4.4 4.1 4.2 4.0 5.3 5.3 5.0 5.6 6.3 6.0 5.7 5.5 5.2 5.1 6.0
7.1 7.2 7.3 7.2 6.9 6.7 6.4 6.4 6.4 6.3 6.5 6.4 6.3 6.1 6.1 6.2 6.3 6.1 6.1 6.2 6.1 6.0 5.9 5.7 5.7 5.6 5.5 5.5 5.4 5.1 4.6 4.0 3.7 4.2 5.1 3.7 6.4 5.8 5.6 5.8 5.9 5.5 5.6 5.6
7.3 7.0 6.9 7.1 7.1 6.7 6.5 6.3 6.2 6.3 6.2 6.3 6.7 6.5 6.2 6.1 6.0 6.0 6.0 5.9 5.9 6.0 5.8 5.6 5.6 5.9 5.7 5.8 5.6 5.4 5.1 4.3 4.0 4.0 3.7 5.1 6.5 6.2 5.5 5.1 6.1 5.7 5.6 5.5
6.6 6.7 6.5 6.5 6.7 6.8 6.3 6.2 6.2 6.1 6.0 6.3 6.1 6.2 6.2 6.2 6.0 6.0 6.1 5.8 5.9 5.7 5.6 5.6 5.4 5.6 5.8 5.4 5.6 5.8 5.3 4.7 3.9 3.2 3.0 3.0 6.4 6.1 5.6 4.7 4.8 5.4 5.6 5.5
5.9 6.1 6.3 6.3 6.1 6.3 6.3 5.8 5.7 5.9 6.0 6.0 5.9 6.1 6.1 6.2 6.2 6.2 6.1 6.0 5.8 5.5 5.5 5.0 4.8 5.2 5.5 5.4 5.6 5.7 5.1 4.2 4.2 3.1 2.4 2.8 5.8 5.0 4.7 4.1 4.7 4.3 4.0 4.0
5.8 5.9 5.9 6.1 6.2 6.2 6.1 6.1 5.7 5.4 5.6 5.9 6.0 5.8 5.9 6.0 6.3 6.2 6.0 5.7 6.0 5.7 5.4 5.2 5.3 4.8 5.1 4.9 5.3 5.7 5.6 5.2 4.3 3.1 2.5 3.7 5.6 5.1 4.6 4.6 4.2 3.8 3.7 3.5
5.8 5.8 5.7 5.7 5.9 5.8 5.9 6.1 5.8 5.5 5.6 5.9 5.7 5.9 6.1 6.0 6.0 5.9 6.1 6.1 5.7 4.8 5.2 5.1 4.9 5.0 4.8 5.2 4.5 5.3 4.8 5.8 5.6 5.4 6.0 6.4 5.9 5.0 4.6 4.3 4.3 4.1 3.6 3.6
5.2 5.3 5.6 5.9 5.8 5.4 5.6 5.8 5.9 5.4 5.4 5.8 5.9 6.0 6.0 5.8 6.1 5.9 5.7 6.3 6.0 5.9 5.4 5.0 4.5 4.1 4.3 4.4 4.7 5.0 4.9 5.3 4.9 5.6 5.2 6.0 5.3 4.7 4.5 4.4 4.2 4.4 4.5 4.3
4.6 4.7 4.8 4.9 5.4 5.3 5.1 5.1 5.8 5.3 4.8 5.3 6.4 6.0 5.7 5.9 6.0 6.0 5.9 5.9 5.8 6.0 5.9 5.5 4.8 4.2 4.3 4.5 4.7 4.3 4.5 4.9 5.7 4.9 5.7 5.8 5.1 5.0 4.7 4.4 4.4 4.5 4.6 4.6
4.6 4.5 4.5 5.1 4.9 5.0 5.0 5.3 5.4 5.3 4.7 4.6 5.5 5.3 5.5 5.7 5.8 5.9 6.1 6.1 6.3 6.5 6.2 5.9 5.4 4.6 4.3 4.2 3.8 3.7 5.2 6.2 5.0 5.3 6.4 4.9 4.5 4.6 4.5 4.2 4.0 4.7 5.1 5.1
4.9 4.7 4.6 4.8 4.9 4.7 4.7 4.9 5.0 5.0 5.0 4.3 3.9 5.1 5.9 6.1 6.0 6.0 6.3 6.3 6.4 6.2 5.9 5.8 5.2 4.7 4.6 4.2 3.5 4.2 5.8 5.9 5.8 5.4 5.6 5.1 4.8 4.4 4.1 4.1 4.1 4.3 4.5 4.7
4.5 4.5 4.5 4.4 4.2 4.3 4.4 4.4 4.5 4.7 4.7 4.6 4.3 4.3 5.0 5.9 6.3 6.4 6.3 6.3 5.9 5.8 5.4 4.6 4.3 4.3 5.0 4.6 4.1 5.8 6.1 6.0 5.5 5.4 5.2 4.8 4.7 4.4 4.5 4.7 4.5 4.3 4.5 4.6
4.1 4.2 4.3 4.4 4.4 4.5 4.6 4.7 4.6 4.6 4.6 4.3 3.9 3.9 4.2 4.5 5.2 6.2 6.4 6.4 6.0 5.7 5.8 5.5 5.4 5.0 4.7 4.3 5.8 6.5 6.4 6.1 5.7 5.4 4.9 4.3 4.2 4.4 4.6 4.3 4.7 4.8 4.8 4.7
4.7 4.6 4.4 4.3 4.4 4.4 4.5 4.7 4.9 5.1 5.1 4.9 4.5 4.5 4.4 4.6 5.0 5.4 5.7 5.8 5.9 5.8 5.5 5.6 5.2 5.0 4.4 5.7 5.8 6.0 5.9 5.5 5.2 5.1 5.0 4.9 4.9 4.7 4.8 4.8 4.8 4.7 4.6 4.7
4.5 4.7 4.7 4.6 4.7 4.6 4.7 4.6 4.8 4.8 5.0 4.9 5.0 5.2 4.7 4.7 4.7 5.0 5.2 5.3 5.4 5.2 5.1 4.8 4.9 5.3 6.0 6.0 6.0 6.1 5.9 5.8 5.7 5.6 5.4 5.4 5.2 5.1 4.9 4.9 4.8 4.8 4.8 4.7
4.9 4.8 4.9 4.9 4.9 5.1 5.1 5.3 5.1 4.9 4.5 4.5 5.3 5.5 5.5 5.4 5.1 5.1 5.2 5.2 5.2 5.0 5.0 4.6 4.8 4.8 5.4 5.5 5.7 5.6 5.6 5.5 5.4 5.4 5.4 5.5 5.3 5.3 5.1 4.9 4.5 4.7 4.9 5.3
4.9 5.1 5.1 5.1 5.4 6.0 6.3 6.2 6.0 5.4 5.4 5.6 5.7 6.1 5.9 5.6 5.5 5.5 5.4 5.4 5.4 5.5 5.3 5.2 5.2 5.4 5.5 5.5 5.3 5.4 5.4 5.2 5.1 4.8 4.5 4.5 4.6 4.6 4.7 4.9 5.3 5.9 6.0 6.3
6.6 6.6 6.6 6.3 6.5 6.3 6.2 6.6 6.4 6.4 6.4 6.5 6.6 6.5 6.4 6.2 6.1 6.0 5.9 5.9 6.1 6.1 5.8 5.6 5.7 5.7 5.6 5.4 5.3 5.3 5.1 4.7 4.6 4.8 4.8 5.2 5.4 6.0 6.6 6.6 7.2 7.2 7.2 7.4
7.9 7.9 8.0 7.8 7.8 7.5 7.2 7.2 6.9 6.9 7.1 7.2 7.3 7.4 6.9 6.7 6.6 6.4 6.4 6.8 6.5 6.6 6.2 6.0 5.9 5.8 5.7 5.3 5.0 4.9 4.8 4.9 4.9 5.4 6.0 6.7 7.0 7.1 7.3 7.3 7.3 7.2 7.2 7.5
8.4 8.2 8.4 8.2 8.5 8.6 8.2 7.9 7.6 7.4 7.3 7.3 7.2 7.0 6.8 6.9 7.1 6.6 6.8 7.1 7.1 6.4 6.7 6.9 6.6 6.5 6.0 5.6 5.9 6.1 5.9 6.1 6.4 6.7 7.0 7.2 7.3 7.5 7.6 7.7 7.6 7.5 7.4 7.3
8.1 8.3 8.4 8.7 8.8 8.8 8.6 8.4 8.1 7.9 8.0 7.9 7.9 7.8 7.8 7.9 8.1 7.7 7.2 7.0 6.6 6.8 7.4 7.5 7.4 6.9 6.6 6.6 6.5 6.6 6.9 7.1 7.1 7.1 7.1 7.0 6.9 7.0 7.0 6.8 6.9 7.2 7.4 7.5
8.1 8.3 8.4 8.4 8.4 8.6 8.5 8.5 8.6 8.6 8.4 8.4 8.5 8.5 8.5 8.5 8.3 7.4 7.2 7.2 7.3 7.3 7.1 6.9 6.9 6.8 6.9 6.9 6.9 6.8 7.0 7.3 7.3 7.2 7.1 7.0 7.0 7.0 7.0 6.9 7.0 7.4 7.3 7.5
Wind_Speed
22 23 23 21 16 10 6 2 3 3 3 4 2 3 4 3 3 2 1 2 1 3 3 2 1 2 6 4 4 3 1 4 4 7 2 4 4 6 5 4 5 1 3 7
23 24 23 21 16 7 3 2 1 2 4 3 2 1 2 1 3 3 3 3 2 2 4 2 4 4 2 5 4 4 3 1 4 3 3 3 5 5 4 4 3 6 5 6
22 25 26 25 17 2 3 3 2 4 4 1 7 4 1 1 0 1 1 1 1 1 1 1 3 3 2 3 2 4 2 2 5 5 4 4 4 5 7 5 3 3 8 8
21 24 27 28 26 1 3 3 2 3 1 3 2 3 6 4 2 1 1 1 4 4 3 1 2 2 1 1 3 2 4 4 4 7 11 8 14 10 9 12 9 7 8 10
19 23 27 30 31 1 4 3 3 2 2 2 3 1 6 7 4 6 3 3 3 5 4 6 5 5 4 5 0 4 0 3 4 5 6 5 7 10 14 17 19 17 21 27
17 20 24 27 31 9 3 2 1 3 2 1 4 4 6 6 6 6 5 7 4 5 7 5 3 4 2 4 9 7 4 2 2 5 5 9 7 8 11 5 4 13 12 16
15 17 21 25 27 15 2 1 1 3 3 3 4 3 4 7 6 5 4 6 6 3 3 1 2 1 3 6 6 5 6 4 3 4 6 3 4 3 7 12 6 13 12 13
12 15 18 20 23 22 4 1 2 2 2 2 2 5 3 2 0 3 4 4 3 5 3 2 3 2 1 2 2 5 3 4 2 2 2 8 5 2 5 6 6 8 14 15
11 11 13 15 18 20 4 2 0 1 3 5 1 4 5 5 4 3 2 2 1 4 2 2 5 5 4 4 2 4 4 2 3 2 3 6 4 2 2 2 5 3 5 7
12 9 8 10 12 14 4 1 5 2 1 3 2 4 5 6 3 2 2 3 2 2 3 3 4 5 4 5 7 6 4 2 11 7 5 8 11 7 3 2 7 5 5 6
15 11 8 5 6 9 4 1 5 2 1 5 3 3 2 1 3 5 3 3 0 2 4 4 4 4 5 2 4 7 9 8 5 4 6 10 7 5 7 6 2 4 4 4
16 14 8 5 3 4 3 1 2 1 2 5 2 5 5 4 3 4 5 5 4 4 2 2 1 3 2 4 4 2 3 7 6 12 8 3 6 6 8 2 3 4 4 11
7 6 7 6 3 2 1 1 0 2 2 5 3 5 3 3 7 4 4 2 6 5 4 4 3 5 4 4 6 5 5 6 4 0 7 13 7 7 7 5 6 8 9 9
6 3 3 5 4 5 5 2 2 2 1 3 6 2 5 3 2 6 5 3 3 4 3 3 3 3 4 4 4 4 5 4 4 7 12 12 10 6 5 9 9 8 7 7
3 3 3 5 4 5 6 6 7 8 3 3 5 8 7 6 8 7 5 4 3 2 2 3 4 2 2 4 2 11 6 18 13 17 16 14 16 8 8 7 9 10 9 12
10 5 4 3 3 3 1 2 1 12 3 3 3 4 3 2 0 5 5 4 3 3 3 3 3 4 3 4 7 6 10 9 14 19 17 11 9 7 8 14 10 9 7 7
12 9 11 11 5 4 3 2 1 6 5 2 3 3 2 0 1 1 1 2 2 3 2 3 3 3 4 3 15 8 6 10 12 15 16 20 15 6 7 5 6 6 6 7
11 13 10 8 10 10 4 5 4 6 3 1 3 3 2 3 2 2 0 1 1 3 3 1 2 0 2 6 9 7 11 12 8 8 8 6 3 5 7 7 6 7 5 4
10 10 11 4 3 2 3 8 8 13 3 2 2 3 4 2 2 2 1 2 2 1 3 3 4 3 7 6 5 6 7 4 4 5 7 8 7 4 3 1 2 3 6 6
6 2 1 2 3 5 7 0 2 5 4 3 4 2 3 3 3 2 2 2 3 3 4 3 4 7 10 4 4 5 5 5 3 7 7 9 11 10 8 8 7 6 7 7
1 2 2 3 5 1 3 3 3 3 3 3 3 6 3 3 3 4 4 2 3 3 4 6 3 4 1 5 10 9 9 11 8 5 1 3 8 10 10 10 9 8 9 9
3 3 2 2 2 2 3 3 3 3 4 3 3 4 4 3 3 3 3 4 5 6 5 3 3 2 4 5 7 6 4 4 6 7 10 12 11 11 9 8 11 12 12 13
1 3 3 2 1 4 4 4 4 2 2 1 1 2 2 2 3 3 4 6 4 4 3 3 1 1 4 3 1 3 8 9 11 11 11 11 13 12 10 11 11 12 12 14
3 4 5 5 3 4 4 4 3 4 2 3 2 2 3 2 2 1 4 3 1 3 1 4 1 5 9 10 10 7 10 11 11 13 11 9 12 13 13 12 13 11 12 15
4 3 5 6 4 3 3 2 1 3 2 1 2 2 1 1 3 1 2 6 3 2 2 2 4 10 9 10 9 8 10 10 9 10 9 12 13 14 15 14 13 12 12 12
3 4 3 2 2 3 2 3 4 3 2 1 2 2 1 4 3 2 6 4 5 4 3 3 2 4 7 7 8 9 10 11 11 11 12 13 14 15 16 16 12 12 13 13
4 3 0 1 2 3 5 1 3 1 2 1 1 5 8 1 1 3 4 5 6 4 5 4 5 5 7 8 8 10 10 11 12 13 14 14 15 13 12 14 17 14 12 11
Wind_Direction
6 6 7 4 359 351 53 76 45 314 28 46 46 109 152 159 190 206 207 155 139 175 162 151 168 228 216 197 159 172 170 149 237 214 205 190 177 194 162 126 258 185 152 273
5 360 0 5 1 9 113 80 244 340 84 105 32 235 83 150 143 214 193 193 221 186 180 182 198 210 181 171 146 166 178 269 340 340 353 332 229 201 173 126 107 206 142 261
10 2 355 357 360 327 87 93 28 332 46 102 129 142 161 164 303 192 157 169 68 93 224 271 214 193 206 173 133 132 112 203 206 208 218 143 217 200 195 159 143 197 232 290
8 5 0 357 356 235 101 32 206 180 279 339 112 122 155 138 210 280 164 304 215 173 190 230 240 153 122 8 191 131 140 233 210 255 256 248 256 249 199 210 206 198 259 236
7 8 6 3 1 337 74 124 128 5 152 142 123 348 212 169 164 154 229 212 190 202 212 198 209 159 190 205 86 170 122 278 352 280 273 250 265 246 224 224 233 243 261 271
2 7 10 12 11 15 71 318 4 110 310 101 119 208 182 210 157 210 184 187 156 204 229 211 218 196 165 180 159 185 167 193 25 269 334 312 291 243 195 209 211 216 237 246
3 6 11 16 18 36 115 321 66 90 230 159 216 211 178 186 203 179 197 167 157 216 125 101 103 153 202 163 188 158 152 163 173 274 331 319 241 254 180 210 218 215 255 258
0 5 6 17 23 18 70 5 43 105 265 228 219 179 189 153 12 230 206 224 180 136 86 65 359 335 359 157 353 209 171 148 230 226 249 295 284 166 155 181 285 221 235 260
333 353 2 7 14 23 74 42 154 56 114 242 309 163 175 177 199 316 222 41 79 63 88 113 206 223 218 214 190 8 109 102 151 151 210 241 256 195 158 111 280 247 218 262
307 316 342 357 3 18 62 18 13 80 259 270 203 204 189 163 147 163 158 184 163 82 131 176 201 243 182 195 181 172 154 199 215 210 252 275 256 210 109 129 252 187 182 189
302 294 296 325 351 9 42 178 26 80 266 276 222 265 206 234 170 156 165 80 272 66 180 176 215 207 227 185 167 178 171 166 195 179 224 266 170 68 170 225 232 219 233 258
305 288 261 277 308 353 15 20 31 74 185 257 271 250 244 225 230 163 181 164 165 189 134 245 207 223 204 189 239 93 239 198 185 191 211 252 210 206 233 352 264 276 268 277
318 271 239 231 249 271 191 214 78 43 333 293 347 245 300 202 205 209 169 253 168 179 183 175 214 229 142 197 231 202 238 189 225 102 217 248 242 260 254 265 268 267 258 250
354 348 252 245 239 221 194 194 149 114 243 261 279 310 281 286 234 216 215 161 81 108 117 201 199 196 176 224 255 197 208 159 244 263 283 298 267 249 289 303 308 270 259 238
350 310 281 268 258 257 247 225 204 200 168 261 291 298 266 265 224 210 181 181 148 173 206 205 229 244 224 230 229 248 216 255 261 269 281 282 286 300 309 297 293 289 276 287
355 335 299 274 256 237 225 289 178 203 181 277 271 274 284 338 157 227 216 182 184 205 200 202 215 219 178 248 258 237 223 231 240 261 277 284 288 270 290 289 293 297 307 321
348 335 340 343 323 228 220 248 153 40 196 229 266 256 256 154 109 59 137 175 202 187 230 228 198 184 208 242 256 252 268 280 270 278 292 293 292 303 319 329 8 22 24 20
324 333 322 302 295 306 284 268 173 134 284 311 240 252 295 158 192 221 234 164 142 214 230 170 185 255 205 254 263 244 246 264 285 274 282 291 71 68 53 52 43 31 7 337
285 296 313 292 244 229 240 217 167 160 205 237 227 196 225 163 156 143 163 157 223 231 239 217 164 185 226 225 238 253 263 258 298 359 59 58 66 45 36 26 5 305 283 280
310 307 257 241 229 258 21 18 226 193 199 223 242 213 239 142 158 175 181 187 227 226 223 149 216 252 262 272 290 316 32 24 335 123 63 36 17 351 317 276 254 268 274 279
110 233 236 257 69 333 227 234 206 193 226 196 226 202 201 207 153 194 199 198 192 220 239 187 225 253 269 51 82 78 75 64 57 78 188 235 259 275 282 289 270 271 276 271
218 226 291 281 217 221 240 246 289 200 236 210 208 218 192 219 175 192 205 205 183 236 153 219 245 270 116 107 111 99 72 179 225 221 233 245 244 252 259 261 265 266 267 276
250 217 192 233 232 228 199 231 270 279 269 234 242 233 188 162 180 210 211 215 232 120 192 222 206 248 159 167 172 181 217 232 241 257 255 257 265 263 252 261 261 264 272 272
216 203 205 196 235 237 200 190 210 248 300 348 19 10 0 343 246 285 248 264 28 285 168 222 218 181 197 206 224 256 249 246 255 255 261 269 275 276 272 261 263 265 268 279
229 210 233 200 195 222 231 220 307 243 236 73 17 25 316 262 272 236 325 352 288 246 236 168 213 205 210 222 243 251 263 267 255 253 264 278 276 280 281 275 270 271 267 265
243 236 208 235 128 263 204 198 236 201 179 74 63 100 14 256 189 96 224 129 228 258 226 232 239 237 232 239 256 258 262 280 285 287 283 275 273 267 268 277 274 260 256 256
248 230 302 188 308 219 227 142 249 150 109 152 188 211 221 119 5 284 186 207 239 233 268 253 242 248 275 268 266 273 275 277 277 277 280 278 278 279 278 275 275 272 268 253